Location: Chemnitz
(49.5500°N, 11.5830°E)
Time: 22:31:58
(UTC+02:00)

ISS - Visible Passes

Search period start: 26 July 2017 00:00
Search period end: 05 August 2017 00:00
Orbit: 400 x 408 km, 51.6° (Epoch: 27 July)

Date Brightness Start Highest point End Pass type
(mag) Time Alt. Az. Time Alt. Az. Time Alt. Az.
26 Jul -3.3 00:52:04 10° WNW 00:55:18 57° N 00:56:42 29° ENE visible
26 Jul -1.5 02:28:36 10° WNW 02:29:15 15° WNW 02:29:15 15° WNW visible
26 Jul -4.0 22:23:07 10° WSW 22:26:20 72° SSE 22:29:36 10° ENE visible
26 Jul -3.2 23:59:41 10° W 00:02:55 57° N 00:05:20 16° ENE visible
27 Jul -2.2 01:36:18 10° WNW 01:37:56 27° WNW 01:37:56 27° WNW visible
27 Jul -3.4 23:07:18 10° W 23:10:32 63° N 23:13:46 10° ENE visible
28 Jul -3.5 00:43:58 10° WNW 00:46:58 64° NNW 00:46:58 64° NNW visible
28 Jul -3.7 22:14:55 10° WSW 22:18:09 76° NNW 22:21:26 10° ENE visible
28 Jul -3.3 23:51:36 10° WNW 23:54:50 59° N 23:56:08 31° ENE visible
29 Jul -1.3 01:28:08 10° WNW 01:28:45 14° WNW 01:28:45 14° WNW visible
29 Jul -3.2 22:59:12 10° W 23:02:25 57° N 23:05:21 12° ENE visible
30 Jul -2.8 00:35:46 10° WNW 00:37:58 39° WNW 00:37:58 39° WNW visible
30 Jul -3.3 22:06:46 10° W 22:10:00 60° N 22:13:14 10° ENE visible
30 Jul -3.7 23:43:24 10° WNW 23:46:40 73° NNE 23:47:12 57° ENE visible
31 Jul -3.4 22:51:01 10° WNW 22:54:15 61° N 22:56:29 18° E visible
01 Aug -2.0 00:27:33 10° WNW 00:29:05 24° W 00:29:05 24° W visible
01 Aug -3.2 21:58:35 10° WNW 22:01:49 57° N 22:05:02 10° E visible
01 Aug -4.0 23:35:09 10° WNW 23:38:22 77° SSW 23:38:22 77° SSW visible
02 Aug -3.8 22:42:44 10° WNW 22:46:01 80° NNE 22:47:40 26° E visible
03 Aug -1.4 00:19:25 10° W 00:20:18 16° W 00:20:18 16° W visible
03 Aug -3.5 21:50:19 10° WNW 21:53:34 64° N 21:56:49 10° E visible
03 Aug -3.2 23:26:52 10° WNW 23:29:36 42° SW 23:29:36 42° SW visible
04 Aug -3.9 22:34:24 10° WNW 22:37:38 68° SSW 22:38:56 32° SE visible
